Location: Franzen
(48.6167°N, 15.3833°E)
Time: 10:04:52
(UTC+00:00)

Cosmos 482 Debris - Pass Details

Date: 22 April 2021
Orbit: 200 x 2130 km, 52.0° (Epoch: 16 May)

Event Time Altitude Azimuth Distance (km) Brightness Sun altitude
Rises 18:43:39 0° 271° (W) 2,370 8.8 -7.4°
Reaches altitude 10° 18:46:11 10° 281° (W) 1,261 7.6 -7.7°
Maximum altitude 18:48:39 34° 350° (N) 461 4.4 -8.1°
Drops below altitude 10° 18:50:32 10° 60° (ENE) 955 5.3 -8.3°
Enters shadow 18:51:08 - 66° (ENE) 1,206 5.7 -8.4°
